EHI
0 0 0 0 0 0 0 0 0 0 0 0 0 2 3 3 8 16 23 29 35 41 46 50 52 56 70 82 81 77 71 63 53 43 34 26 22 21 21 22 27 27 21 18
0 0 0 0 0 0 0 0 0 0 0 0 1 3 5 5 8 16 24 30 36 44 53 61 62 64 74 84 84 78 74 67 57 47 37 29 25 23 21 22 27 27 23 21
0 0 0 0 0 0 0 0 0 0 0 0 1 3 7 10 11 16 23 29 35 46 59 69 71 72 78 85 85 81 79 74 63 51 41 34 31 27 24 25 28 27 25 24
0 0 0 0 0 0 0 0 0 0 0 0 0 2 7 12 14 15 18 24 33 44 57 69 74 74 78 83 85 84 85 80 69 55 45 39 34 29 28 29 31 30 27 24
0 0 0 0 0 0 0 0 0 0 0 0 0 0 4 9 12 12 14 20 30 40 53 68 74 74 75 79 83 86 87 83 72 59 51 43 34 28 27 32 35 34 31 28
0 0 0 0 0 0 0 0 0 0 0 0 0 0 1 4 6 8 12 21 30 38 50 65 73 73 73 77 81 84 85 82 74 65 55 45 34 26 26 32 37 35 33 32
0 0 0 0 0 0 0 0 0 0 0 0 0 0 1 2 3 6 13 24 32 39 48 60 70 74 75 77 80 82 82 81 78 71 62 51 38 27 26 31 34 33 30 30
0 0 0 0 0 0 0 0 0 0 0 0 0 1 3 4 4 7 13 23 32 39 47 57 67 75 77 77 79 82 84 83 81 77 70 60 46 33 28 28 29 28 25 25
0 0 0 0 0 0 0 0 0 0 0 0 0 2 5 6 6 8 13 20 27 36 44 53 62 70 74 75 78 81 83 82 79 76 71 63 52 41 33 30 27 25 24 24
0 0 0 0 0 0 0 0 0 0 0 0 0 2 4 6 7 9 13 18 24 30 37 46 55 61 66 70 73 75 76 75 72 70 66 61 53 46 39 34 31 30 28 28
0 0 0 0 0 0 0 0 0 0 0 0 1 2 4 5 6 9 14 20 26 30 34 41 50 55 58 62 67 70 70 69 67 64 61 59 55 50 44 38 36 37 35 32
0 0 0 0 0 0 0 0 0 0 0 0 1 3 5 6 8 13 19 26 30 34 38 44 51 54 53 58 66 69 69 68 67 64 61 60 58 54 50 45 42 44 42 38
0 0 0 0 0 0 0 0 0 0 0 0 1 4 7 9 14 20 28 33 34 37 43 50 56 56 55 61 68 70 68 67 68 66 65 64 61 58 56 53 51 49 46 43
0 0 0 0 0 0 0 0 0 0 0 0 3 7 11 15 21 28 36 39 39 40 44 51 57 59 60 65 69 70 67 67 68 68 68 67 64 62 61 60 58 54 48 45
0 0 0 0 0 0 0 0 0 0 0 0 3 9 16 23 27 33 40 44 46 47 48 53 59 62 62 63 66 68 68 68 68 69 69 67 66 64 63 62 61 58 52 47
0 0 0 0 0 0 0 0 0 0 0 0 3 10 18 26 31 35 40 46 50 51 52 56 62 64 63 61 62 65 68 69 70 69 68 67 66 65 63 62 61 60 55 50
0 0 0 0 0 0 0 0 0 0 0 1 4 12 20 26 32 36 40 45 47 46 48 54 60 64 62 59 58 62 67 70 71 69 66 66 66 65 63 61 60 59 55 53
0 0 0 0 0 0 0 0 0 0 1 3 7 13 21 27 31 34 37 41 42 41 43 48 53 55 55 54 55 59 63 66 67 66 65 65 65 63 60 58 57 56 55 54
0 0 0 0 0 0 1 1 1 1 2 6 11 17 23 27 29 31 33 36 38 40 44 47 47 46 46 49 52 56 58 61 62 62 63 64 63 59 55 54 54 54 55 55
0 0 0 0 0 1 3 3 2 3 7 14 19 23 27 29 29 30 33 36 40 44 47 48 45 41 42 46 49 50 53 56 57 58 59 61 60 56 52 52 52 53 54 54
1 0 0 0 1 3 7 8 9 13 19 25 27 28 31 33 34 35 37 41 44 46 48 48 46 42 40 43 45 47 49 52 52 53 55 56 54 51 50 50 51 52 51 48
2 2 2 2 4 9 14 16 19 25 28 29 29 30 33 36 38 39 41 43 44 44 45 46 46 42 39 41 43 45 48 50 49 49 52 51 48 47 47 49 49 47 44 42
2 3 3 5 8 14 18 18 20 23 25 26 26 28 32 35 37 39 41 43 43 42 42 42 42 40 38 40 43 46 48 47 47 47 46 45 44 45 45 45 42 39 37 36
1 1 2 5 9 12 12 12 11 13 17 20 22 24 28 32 34 36 38 41 42 40 39 38 37 36 37 40 44 47 47 44 44 44 42 41 41 42 40 38 35 31 30 30
1 1 1 4 6 6 5 6 7 9 14 17 19 21 24 27 29 30 32 36 37 36 34 33 33 34 35 38 43 44 43 42 43 42 39 38 37 37 35 32 28 24 21 21
2 2 3 5 6 4 4 5 6 9 14 17 18 20 22 23 23 24 27 31 33 32 30 30 32 33 33 36 40 40 39 41 42 39 37 36 34 34 32 28 23 18 14 12
Wind_Speed
14 14 12 12 10 9 9 8 7 7 5 5 5 8 10 12 13 13 12 12 12 12 13 13 12 13 12 10 9 8 7 6 5 3 3 3 3 2 2 2 3 4 3 2
15 16 13 12 11 9 9 9 8 5 4 4 3 5 7 9 11 12 13 13 13 12 12 12 11 11 12 11 10 9 7 7 6 4 3 2 2 2 3 2 3 3 3 3
18 13 11 13 13 11 10 9 7 5 7 8 6 5 5 5 6 11 12 13 14 14 13 13 11 11 11 12 11 10 9 8 7 6 4 3 2 1 2 3 3 3 3 3
17 15 12 13 13 12 11 9 8 9 10 7 6 4 4 4 5 8 10 12 13 13 14 13 12 11 12 12 11 9 9 8 7 6 5 5 4 3 2 2 3 3 3 3
16 16 14 14 13 13 12 10 10 10 10 8 8 5 4 6 7 7 7 10 12 13 14 14 13 12 11 12 11 10 9 8 7 7 5 4 3 3 2 3 3 3 3 3
17 14 13 14 13 12 11 11 11 11 10 11 9 8 6 6 6 5 7 7 9 11 12 13 13 11 10 10 10 10 9 8 8 7 6 5 4 3 3 3 3 3 3 3
18 17 14 13 13 13 13 11 9 10 9 9 8 8 3 8 8 8 8 8 9 9 11 11 12 12 10 10 10 10 10 9 8 8 7 6 5 4 4 4 4 3 3 3
17 16 16 14 14 13 13 15 12 10 8 6 5 7 3 6 6 7 8 9 10 8 9 11 11 11 10 11 10 11 10 9 9 8 6 6 6 5 4 4 3 3 2 3
13 14 14 15 14 15 14 14 15 12 11 9 6 5 3 4 7 6 7 7 9 9 9 11 11 11 10 10 9 9 9 8 8 8 7 5 5 5 4 3 3 2 2 2
14 11 11 12 13 15 16 13 10 11 9 10 8 7 4 5 5 6 6 7 7 8 9 11 11 10 10 10 9 9 8 7 6 6 7 7 6 5 3 3 4 3 2 1
14 13 12 11 13 14 14 14 11 8 9 10 7 2 2 4 5 5 5 5 5 6 7 8 9 9 9 10 10 9 9 8 7 6 5 5 6 6 5 4 3 3 3 3
10 11 12 13 11 13 14 14 13 10 9 9 8 3 4 4 6 6 6 8 5 4 5 6 8 6 6 8 9 9 8 8 7 6 6 5 5 5 5 5 4 4 4 4
6 9 11 13 12 13 13 14 14 13 10 10 10 2 5 4 5 6 8 9 7 4 4 7 6 6 5 5 6 7 8 8 7 7 6 6 6 6 6 5 5 4 4 4
6 9 13 13 9 8 12 13 13 12 10 9 8 4 4 6 6 6 7 8 8 4 4 6 5 4 5 4 4 5 5 6 7 6 6 6 6 6 5 5 5 5 5 4
7 11 14 16 14 12 11 13 14 13 13 12 7 4 4 5 5 6 6 7 7 5 4 5 4 4 4 4 4 4 3 4 5 6 6 6 5 5 5 5 5 4 5 5
7 9 12 15 16 14 14 13 13 13 13 12 8 3 4 6 6 5 6 6 6 4 5 4 4 4 4 3 3 4 3 4 4 5 5 6 5 4 4 4 5 4 4 4
6 7 10 13 14 14 16 12 11 9 8 8 7 2 4 5 5 3 4 5 5 4 4 3 2 3 3 3 2 2 4 4 4 3 4 4 5 5 5 5 5 5 5 4
6 5 7 11 12 15 9 7 8 7 5 3 1 2 4 5 5 4 4 5 5 3 2 2 1 1 2 2 2 1 3 3 4 4 4 5 5 5 5 4 4 4 4 5
6 5 8 10 13 13 7 5 6 5 4 1 1 1 4 6 5 5 6 5 4 3 2 1 1 0 1 1 2 2 2 3 4 4 4 4 5 4 5 5 5 4 4 4
9 6 8 9 12 10 2 3 4 6 3 3 3 3 4 3 1 4 5 5 5 4 3 2 2 1 1 1 1 3 3 3 4 4 4 4 4 5 5 4 4 4 4 4
10 10 11 12 12 6 4 6 6 6 2 5 4 5 5 5 5 4 4 4 4 4 4 4 3 2 1 0 0 2 3 3 2 2 3 4 4 4 4 4 4 4 4 3
7 8 9 9 11 3 9 6 6 6 5 6 5 6 7 6 5 4 5 5 4 4 5 5 4 3 2 1 1 2 2 2 2 2 3 4 4 4 4 4 4 4 4 4
4 3 3 3 1 5 7 7 6 5 5 5 5 6 5 4 3 4 4 5 5 5 4 4 4 3 3 2 1 1 1 2 2 2 3 3 4 3 4 5 5 4 4 5
2 3 3 3 2 4 5 5 5 6 5 6 5 4 4 4 4 4 4 4 4 4 4 4 4 3 3 3 2 1 1 2 2 2 2 3 3 3 3 3 4 4 4 4
4 3 3 3 2 3 4 6 6 4 4 4 5 4 3 3 3 3 3 3 3 3 3 3 4 3 4 3 2 2 1 1 2 2 3 3 3 3 3 2 1 2 1 2
4 4 4 3 4 4 3 5 7 6 4 4 4 4 3 3 3 2 2 2 3 3 3 3 4 4 4 4 3 2 1 1 2 2 2 3 3 3 3 4 2 4 3 5
Wind_Direction
231 237 243 250 242 227 245 255 243 238 213 212 183 171 171 177 175 167 167 169 171 173 170 167 167 163 159 156 159 168 177 164 169 182 189 184 182 189 176 174 164 165 186 192
239 233 242 261 269 252 249 255 248 248 230 236 208 184 180 188 182 169 169 171 173 173 166 164 168 168 163 161 165 169 178 173 178 179 187 191 192 190 176 161 147 168 177 191
239 239 228 241 252 254 254 255 258 260 252 241 230 211 196 196 204 171 174 175 176 175 170 167 171 174 169 167 172 179 177 175 184 178 184 194 174 210 172 153 158 172 175 194
240 246 243 245 246 248 253 258 251 252 255 259 248 238 201 176 237 200 182 177 176 174 170 169 175 178 176 172 174 169 169 171 175 181 195 193 186 187 186 165 157 166 181 189
239 237 240 244 247 251 256 268 268 264 268 270 270 262 225 170 207 214 198 186 175 171 172 171 177 179 179 174 170 165 164 169 174 185 192 199 201 187 174 163 158 168 177 185
250 243 238 246 249 253 263 266 265 263 264 257 251 249 203 178 181 191 200 197 169 167 167 167 170 168 173 169 163 161 163 169 175 183 188 193 201 193 177 173 172 184 178 181
241 243 234 238 247 241 244 250 248 244 244 256 274 261 162 157 166 176 182 177 161 162 160 159 161 162 164 164 162 161 164 171 177 182 188 188 198 196 193 196 195 196 184 174
228 229 226 223 233 248 240 243 248 257 258 264 281 268 187 164 157 151 147 153 149 157 158 157 162 161 164 166 164 162 165 173 178 182 185 186 191 198 201 206 203 199 199 176
246 235 220 215 222 239 245 244 253 256 258 259 245 248 197 170 156 148 136 140 143 151 160 155 160 160 162 163 160 161 162 170 179 181 178 184 192 204 200 183 201 203 190 183
260 267 246 212 214 229 245 253 257 259 261 263 242 233 212 187 167 141 137 134 132 145 155 155 159 161 161 162 160 158 157 165 172 177 184 187 191 196 190 197 196 195 184 178
250 260 256 231 214 230 229 241 254 267 269 267 261 234 187 164 133 138 129 119 117 127 136 146 149 154 157 160 160 162 159 165 176 183 185 184 185 188 188 196 195 187 183 184
243 253 255 247 227 233 240 238 241 247 260 273 275 213 164 132 135 139 123 101 82 82 108 126 129 139 153 161 161 157 162 172 177 178 179 184 181 182 187 192 193 188 184 191
273 255 252 246 235 224 235 242 243 246 250 255 262 199 135 131 112 105 102 103 95 82 97 103 115 135 142 148 153 158 167 173 176 175 177 181 183 185 189 189 186 184 183 186
282 258 256 254 250 239 231 239 247 250 252 252 249 197 163 123 108 101 104 112 117 116 96 102 114 120 129 131 126 143 168 169 169 167 172 175 183 182 185 188 185 180 177 178
259 253 255 263 265 265 251 240 242 245 257 266 267 216 162 130 126 120 121 116 114 112 99 90 104 113 118 118 128 143 159 158 163 166 173 172 176 176 176 180 175 176 179 177
235 267 268 262 260 260 263 250 241 244 249 253 255 226 117 95 99 113 119 112 104 99 88 80 84 101 113 120 144 149 151 150 155 169 179 169 169 171 171 171 171 174 179 171
243 238 262 262 258 258 253 254 249 248 258 266 265 179 117 102 97 82 94 110 104 92 83 77 65 96 116 127 136 162 158 158 163 171 174 163 167 176 172 180 178 175 178 176
257 263 260 260 260 254 255 271 264 254 252 271 238 128 111 101 92 69 69 86 88 83 84 69 51 83 114 130 130 197 178 165 177 185 183 176 174 178 171 175 184 183 179 181
239 247 255 257 253 248 235 252 272 267 260 324 336 50 92 107 106 91 66 60 73 53 46 38 345 357 91 131 141 163 204 190 194 194 190 179 173 180 178 181 186 186 186 186
219 217 245 253 260 264 275 320 302 275 225 27 39 54 50 62 135 79 49 35 46 37 24 1 344 7 56 83 150 182 205 198 202 199 190 179 177 185 188 185 185 184 186 187
209 213 230 246 254 258 9 337 287 254 20 22 40 56 55 35 28 51 36 42 45 35 16 4 356 359 21 62 210 196 199 203 196 191 187 183 182 189 185 176 179 180 181 176
233 231 228 245 253 264 12 17 19 39 32 36 43 55 61 54 49 39 32 30 33 27 16 7 6 1 357 341 249 221 205 192 180 187 181 182 181 197 188 177 182 185 182 180
262 313 322 338 37 65 46 53 36 31 31 30 40 47 54 50 42 33 27 20 19 19 12 1 356 353 356 351 313 262 219 189 194 193 191 188 186 187 182 182 190 195 196 199
281 342 328 340 61 51 45 44 26 18 18 19 28 34 40 26 23 21 16 12 6 4 0 355 356 355 352 348 337 317 251 206 204 207 203 194 183 186 183 181 192 197 203 209
333 312 287 282 313 338 18 9 1 4 2 10 14 22 28 9 3 5 2 359 350 347 352 352 346 345 341 340 347 339 314 229 215 212 203 201 195 182 160 162 172 184 169 203
289 301 287 303 359 338 339 352 338 337 352 4 359 354 358 350 334 337 341 346 342 337 345 348 345 341 338 337 340 337 319 235 215 217 210 210 199 176 166 155 119 59 96 92